Location: Bratsk-Energetik
(56.3300°N, 101.7600°E)
Time: 21:56:28
(UTC+08:00)

ISS - Pass Details

Date: 15 July 2018
Orbit: 402 x 408 km, 51.6° (Epoch: 23 July)

Event Time Altitude Azimuth Distance (km) Brightness Sun altitude
Exits shadow 03:11:41 - 243° (WSW) 1,665 -1.2 -8.5°
Reaches altitude 10° 03:12:11 10° 240° (WSW) 1,469 -1.5 -8.5°
Maximum altitude 03:15:13 35° 174° (S) 686 -3.1 -8.3°
Drops below altitude 10° 03:18:16 10° 107° (ESE) 1,473 -0.8 -8.1°
Sets 03:20:27 0° 98° (E) 2,336 0.3 -8.0°
